This demonstration page uses our WeatherBlox Daily Observations layout. Learn more.

Left ArrowRight Arrow

Hourly Observations for March 31, 2020

Temp ( °F °C ) Dew Point ( °F °C ) Humidity (%) Winds ( mph kmh ) Pressure ( in mb ) Visibility ( mi km ) Precip ( " mm )
12:56 am 00:56 Cloudy 46 7.8 44 6.7 93 93 Calm 30.07 1018 10 16 0.00 0.00
1:56 am 01:56 Cloudy with Light Rain 46 7.8 44 6.7 93 93 Calm 30.07 1018 10 16 0.00 0.00
2:47 am 02:47 Cloudy 46 8 45 7 93 93 Calm 30.10 1019 10 16 0.00 0.00
2:56 am 02:56 Cloudy 46 7.8 44 6.7 93 93 Calm 30.07 1018 10 16 0.00 0.00
3:37 am 03:37 Cloudy 45 7 45 7 100 100 S 3 6 30.09 1019 10 16 0.00 0.00
3:56 am 03:56 Cloudy 45 7.2 43 6.1 93 93 S 3 6 30.04 1017 10 16 0.00 0.00
4:56 am 04:56 Cloudy 43 6.1 42 5.6 97 97 S 3 6 30.05 1018 10 16 0.00 0.00
5:56 am 05:56 Clear 42 5.6 41 5 96 96 SSW 7 11 30.06 1018 10 16 0.00 0.00
6:56 am 06:56 Mostly Clear 42 5.6 41 5 96 96 SW 8 13 30.06 1018 10 16 0.00 0.00
7:31 am 07:31 Mostly Cloudy 43 6 41 5 93 93 S 7 11 30.10 1019 10 16 0.00 0.00
7:47 am 07:47 Cloudy 43 6 43 6 100 100 S 8 13 30.09 1019 10 16 0.00 0.00
7:56 am 07:56 Cloudy 43 6.1 42 5.6 97 97 SSW 10 17 30.07 1018 10 16 0.00 0.00
8:56 am 08:56 Cloudy 44 6.7 43 6.1 96 96 SSW 16 26 30.06 1018 10 16 0.00 0.00
9:13 am 09:13 Cloudy 45 7 43 6 93 93 SW 15 24 30.07 1018 10 16 0.00 0.00
9:56 am 09:56 Cloudy 45 7.2 43 6.1 93 93 SW 14 22 30.06 1018 10 16 0.00 0.00
10:03 am 10:03 Cloudy 45 7 43 6 93 93 SW 16 26 30.07 1018 10 16 0.00 0.00
10:56 am 10:56 Cloudy 48 8.9 44 6.7 86 86 SW 15 24 30.04 1017 10 16 0.00 0.00
11:41 am 11:41 Cloudy 52 11 46 8 82 82 SW 14 22 30.02 1017 10 16 0.00 0.00
11:56 am 11:56 Cloudy 52 11.1 46 7.8 80 80 SW 15 24 30.02 1017 10 16 0.00 0.00
12:37 pm 12:37 Partly Cloudy 55 13 46 8 72 72 SSW 15 24 29.98 1015 10 16 0.00 0.00
12:56 pm 12:56 Mostly Sunny 56 13.3 47 8.3 72 72 WSW 17 28 29.99 1016 10 16 0.00 0.00
1:56 pm 13:56 Sunny 60 15.6 48 8.9 65 65 SW 17 28 29.95 1014 10 16 0.00 0.00
2:56 pm 14:56 Sunny 65 18.3 44 6.7 47 47 SW 20 31 29.91 1013 10 16 0.00 0.00
3:56 pm 15:56 Sunny 68 20 40 4.4 36 36 SSW 13 20 29.87 1011 10 16 0.00 0.00
4:56 pm 16:56 Mostly Cloudy 70 21.1 37 2.8 30 30 SSW 20 31 29.84 1011 10 16 0.00 0.00
5:56 pm 17:56 Sunny 69 20.6 36 2.2 30 30 SW 17 28 29.83 1010 10 16 0.00 0.00
6:56 pm 18:56 Sunny 67 19.4 35 1.7 31 31 SSW 15 24 29.83 1010 10 16 0.00 0.00
7:56 pm 19:56 Sunny 60 15.6 38 3.3 44 44 SSW 9 15 29.83 1010 10 16 0.00 0.00
8:56 pm 20:56 Clear 55 12.8 38 3.3 53 53 S 10 17 29.84 1010 10 16 0.00 0.00
9:56 pm 21:56 Clear 53 11.7 38 3.3 57 57 S 12 19 29.84 1011 10 16 0.00 0.00
10:56 pm 22:56 Clear 55 12.8 37 2.8 51 51 S 14 22 29.83 1010 10 16 0.00 0.00
11:56 pm 23:56 Clear 53 11.7 40 4.4 61 61 SSW 13 20 29.83 1010 10 16 0.00 0.00

Powered by AerisWeather